Weather History for Windsor Locks, CT

Change the Weather History Date:

Monday, February 18, 2013

  Actual Average Record
Temperature  
Mean Temperature 21 °F 30 °F  
Max Temperature 30 °F 39 °F 68 °F (1981)
Min Temperature 12 °F 22 °F -9 °F (1979)
Degree Days  
Heating Degree Days 44 35  
Month to date heating degree days 682 656  
Since 1 July heating degree days 3840 4106  
Cooling Degree Days 0 0  
Month to date cooling degree days 0 0  
Year to date cooling degree days 0 0  
Moisture  
Dew Point 0 °F    
Average Humidity 41    
Maximum Humidity 55    
Minimum Humidity 27    
Precipitation  
Precipitation 0.00 in 0.11 in 0.91 in (2008)
Month to date precipitation 2.32 1.84  
Year to date precipitation 4.07 5.07  
Snow  
Snow 0.00 in 0.40 in 6.30 in (1928)
Month to date snowfall 24.9 7.7  
Since 1 July snowfall 46.6 29.4  
Snow Depth 10.00 in    
Sea Level Pressure  
Sea Level Pressure 30.08 in    
Wind  
Wind Speed 12 mph (WNW)    
Max Wind Speed 28 mph    
Max Gust Speed 37 mph    
Visibility 10 miles    
Events      
T = Trace of Precipitation, MM = Missing Value Source: NWS Daily Summary

Daily Weather History Graph

Daily Weather History Graph

Search for Another Location

Airport:

Trip Planner

Search our weather history database for the weather conditions in past years. The results will help you decide how hot, cold, wet, or windy it might be!

Date:

Astronomy

Feb. 18, 2013 Rise Set
Actual Time 6:42 AM EST 5:27 PM EST
Civil Twilight 6:13 AM EST 5:56 PM EST
Nautical Twilight 5:41 AM EST 6:28 PM EST
Astronomical Twilight 5:08 AM EST 7:01 PM EST
Moon 11:08 AM EST (2/18) 1:21 AM EST (2/18)
Length of Visible Light 11h 42m
Length of Day
10h 45m
First Quarter, 58% of the Moon is Illuminated
Feb 18
First Quarter
Feb 25
Full
Mar 4
Last Quarter
Mar 11
New
Mar 19
First Quarter

Hourly Weather History & Observations

Time (EST) Temp. Windchill Dew Point Humidity Pressure Visibility Wind Dir Wind Speed Gust Speed Precip Events Conditions
12:51 AM 15.1 °F -0.6 °F -0.9 °F 49% 29.87 in 10.0 mi NW 16.1 mph 23.0 mph N/A   Mostly Cloudy
1:51 AM 14.0 °F -0.8 °F -0.9 °F 52% 29.90 in 10.0 mi NW 13.8 mph 21.9 mph N/A   Scattered Clouds
2:51 AM 14.0 °F -2.5 °F -2.0 °F 49% 29.91 in 10.0 mi WNW 17.3 mph 26.5 mph N/A   Scattered Clouds
3:51 AM 15.1 °F -0.1 °F -2.0 °F 47% 29.93 in 10.0 mi NW 15.0 mph 21.9 mph N/A   Clear
4:51 AM 15.1 °F -1.6 °F -2.0 °F 47% 29.97 in 10.0 mi NW 18.4 mph 33.4 mph N/A   Clear
5:51 AM 12.9 °F -3.4 °F -2.0 °F 51% 30.01 in 10.0 mi NW 16.1 mph 27.6 mph N/A   Clear
6:51 AM 12.0 °F -0.4 °F -2.9 °F 51% 30.04 in 10.0 mi NW 9.2 mph 18.4 mph N/A   Clear
7:51 AM 14.0 °F -0.2 °F -2.2 °F 49% 30.08 in 10.0 mi WNW 12.7 mph - N/A   Partly Cloudy
8:51 AM 17.1 °F 3.6 °F -2.9 °F 41% 30.10 in 10.0 mi NW 12.7 mph 25.3 mph N/A   Partly Cloudy
9:51 AM 19.0 °F 5.6 °F -2.9 °F 38% 30.11 in 10.0 mi NW 13.8 mph 23.0 mph N/A   Clear
10:51 AM 21.9 °F 7.3 °F -4.0 °F 32% 30.10 in 10.0 mi NW 18.4 mph 26.5 mph N/A   Clear
11:51 AM 24.1 °F 11.0 °F -0.9 °F 34% 30.13 in 10.0 mi WNW 16.1 mph 29.9 mph N/A   Clear
12:51 PM 26.1 °F 15.6 °F -0.9 °F 31% 30.12 in 10.0 mi West 11.5 mph 18.4 mph N/A   Clear
1:51 PM 28.9 °F 19.2 °F -0.0 °F 29% 30.11 in 10.0 mi WNW 11.5 mph 23.0 mph N/A   Clear
2:51 PM 28.9 °F 17.3 °F -0.9 °F 28% 30.11 in 10.0 mi WNW 16.1 mph 24.2 mph N/A   Clear
3:51 PM 30.0 °F 18.7 °F -0.0 °F 28% 30.12 in 10.0 mi NW 16.1 mph 24.2 mph N/A   Clear
4:51 PM 28.9 °F 17.3 °F -0.0 °F 29% 30.13 in 10.0 mi WNW 16.1 mph 26.5 mph N/A   Clear
5:51 PM 28.0 °F 18.6 °F 1.0 °F 31% 30.15 in 10.0 mi WNW 10.4 mph - N/A   Clear
6:51 PM 27.0 °F 20.5 °F 1.9 °F 34% 30.17 in 10.0 mi West 5.8 mph - N/A   Clear
7:51 PM 26.1 °F 20.5 °F 1.9 °F 35% 30.17 in 10.0 mi West 4.6 mph - N/A   Clear
8:51 PM 26.1 °F 20.5 °F 1.9 °F 35% 30.17 in 10.0 mi West 4.6 mph - N/A   Clear
9:51 PM 24.1 °F - 3.9 °F 42% 30.18 in 10.0 mi Calm Calm - N/A   Clear
10:51 PM 24.1 °F 19.7 °F 3.9 °F 42% 30.17 in 10.0 mi SE 3.5 mph - N/A   Partly Cloudy
11:51 PM 21.9 °F - 5.0 °F 48% 30.18 in 10.0 mi Calm Calm - N/A   Scattered Clouds